Regional Weather Roundup
Issued by NWS

Home | Current Version | Previous Version | Text Only | Print | Product List | Glossary Off
Versions: 1 2 3 4 5 6 7 8 9 10 11 12 13 14 15 16 17 18 19 20 21 22 23 24 25 26 27 28 29 30 31 32 33 34 35 36 37 38 39 40 41 42 43 44 45 46 47 48 49 50

000
ASUS43 KBIS 170202
RWRND

NORTH DAKOTA REGIONAL WEATHER ROUNDUP
NATIONAL WEATHER SERVICE BISMARCK ND
900 PM CDT WED AUG 16 2017

NOTE: "FAIR" INDICATES FEW OR NO CLOUDS BELOW 12,000 FEET WITH NO
SIGNIFICANT WEATHER AND/OR OBSTRUCTIONS TO VISIBILITY.


NDZ001>003-009>011-017-170300-
NORTHWEST NORTH DAKOTA

CITY           SKY/WX    TMP DP  RH WIND       PRES   REMARKS
WILLISTON      MOCLDY    76  55  48 SE9       29.86S
MINOT          CLEAR     69  53  56 E6        29.88F
MINOT AFB      CLEAR     65  53  65 SE6       29.87S
$$

NDZ018>021-031>035-040>046-170300-
SOUTHWEST NORTH DAKOTA

CITY           SKY/WX    TMP DP  RH WIND       PRES   REMARKS
BISMARCK       PTCLDY    70  56  61 N6        29.89F
DICKINSON      CLEAR     68  55  63 E8        29.91S
GARRISON         N/A     66  55  67 E7        29.89F
HETTINGER ARPT CLEAR     67  53  61 SE5       29.95S
$$

NDZ004>008-012>016-024-026-027-054-170300-
NORTHEAST NORTH DAKOTA

CITY           SKY/WX    TMP DP  RH WIND       PRES   REMARKS
GRAND FORKS    CLOUDY    65  64  97 N7        29.82S
GRND FRKS AFB  CLOUDY    63  63  98 N8        29.84S
DEVILS LAKE    PTCLDY    64  60  87 N6        29.87S
$$

NDZ022-023-025-028>030-036>039-047>053-170300-
SOUTHEAST NORTH DAKOTA

CITY           SKY/WX    TMP DP  RH WIND       PRES   REMARKS
FARGO          CLOUDY    66  65  96 N13       29.79F
JAMESTOWN      CLOUDY    63  60  90 N6        29.84F
$$





USA.gov is the U.S. government's official web portal to all federal, state and local government web resources and services.